Terminal Aerodrome Forecast
Issued by NWS Omaha/Valley, NE

Home | Current Version | Previous Version | Text Only | Print | Product List | Glossary On
Versions: 1 2 3 4 5 6 7 8 9 10 11 12 13 14 15 16 17 18 19 20 21 22 23 24 25 26 27 28
000
FTUS43 KOAX 050520
TAFLNK
TAF
KLNK 050520Z 0506/0606 17013KT P6SM SCT150 BKN250 WS018/20040KT
     FM051600 18015G24KT P6SM BKN250
     FM051900 18018G26KT P6SM SCT050 BKN200=

USA.gov is the U.S. government's official web portal to all federal, state and local government web resources and services.